Weather History for KSNS - December, 2012

Change the Weather History Date:

Tuesday, December 4, 2012

  Actual Average Record
Temperature  
Mean Temperature 55 °F 52 °F  
Max Temperature 61 °F 62 °F 81 °F (1932)
Min Temperature 49 °F 42 °F 30 °F (1968)
Degree Days  
Heating Degree Days 10 13  
Month to date heating degree days 32 52  
Since 1 July heating degree days 464 670  
Cooling Degree Days 0 0  
Month to date cooling degree days 0 0  
Year to date cooling degree days 110 130  
Growing Degree Days 4 (Base 50)    
Moisture  
Dew Point 51 °F    
Average Humidity 88    
Maximum Humidity 100    
Minimum Humidity 75    
Precipitation  
Precipitation 0.00 in 0.05 in 1.09 in (1951)
Month to date precipitation 0.70 0.21  
Year to date precipitation 11.14 11.11  
Since 1 July precipitation 4.02 2.39  
Sea Level Pressure  
Sea Level Pressure 30.24 in    
Wind  
Wind Speed 4 mph (ESE)    
Max Wind Speed 18 mph    
Max Gust Speed 20 mph    
Visibility 10 miles    
Events      
T = Trace of Precipitation, MM = Missing Value Source: NWS Daily Summary

Daily Weather History Graph

Daily Weather History Graph

Search for Another Location

Airport or City:

Trip Planner

Search our weather history database for the weather conditions in past years. The results will help you decide how hot, cold, wet, or windy it might be!

Date:

Astronomy

Dec. 04, 2012 Rise Set
Actual Time 7:03 AM PST 4:50 PM PST
Civil Twilight 6:34 AM PST 5:18 PM PST
Nautical Twilight 6:02 AM PST 5:51 PM PST
Astronomical Twilight 5:31 AM PST 6:22 PM PST
Moon 10:36 PM PST 11:05 AM PST
Length of Visible Light 10h 44m
Length of Day
9h 46m
Waning Gibbous, 68% of the Moon is Illuminated
Dec 4
Waning Gibbous
Dec 6
Last Quarter
Dec 13
New
Dec 19
First Quarter
Dec 28
Full

Hourly Weather History & Observations

Time (PST) Temp. Dew Point Humidity Pressure Visibility Wind Dir Wind Speed Gust Speed Precip Events Conditions
12:53 AM 51.1 °F 48.9 °F 92% 30.23 in 9.0 mi Calm Calm - N/A   Clear
1:53 AM 50.0 °F 48.9 °F 96% 30.22 in 9.0 mi Calm Calm - N/A   Clear
2:53 AM 50.0 °F 48.0 °F 93% 30.24 in 9.0 mi Calm Calm - N/A   Clear
3:53 AM 50.0 °F 48.0 °F 93% 30.25 in 9.0 mi West 3.5 mph - N/A   Partly Cloudy
4:07 AM 50.0 °F 48.2 °F 94% 30.22 in 10.0 mi Calm Calm - N/A   Mostly Cloudy
4:53 AM 51.1 °F 48.9 °F 92% 30.25 in 10.0 mi Calm Calm - N/A   Mostly Cloudy
5:02 AM 51.8 °F 48.2 °F 88% 30.22 in 10.0 mi East 3.5 mph - N/A   Scattered Clouds
5:53 AM 50.0 °F 48.0 °F 93% 30.24 in 9.0 mi ESE 5.8 mph - N/A   Clear
6:53 AM 48.9 °F 48.0 °F 97% 30.25 in 10.0 mi ENE 3.5 mph - N/A   Clear
7:53 AM 50.0 °F 48.0 °F 93% 30.27 in 10.0 mi ESE 6.9 mph - N/A   Clear
8:53 AM 52.0 °F 48.0 °F 86% 30.27 in 10.0 mi ESE 10.4 mph - N/A   Clear
10:53 AM 57.0 °F 52.0 °F 83% 30.28 in 10.0 mi East 13.8 mph - N/A   Partly Cloudy
11:53 AM 57.9 °F 52.0 °F 81% 30.25 in 10.0 mi ESE 6.9 mph - N/A   Clear
12:53 PM 59.0 °F 52.0 °F 78% 30.24 in 10.0 mi ESE 5.8 mph - N/A   Clear
1:53 PM 59.0 °F 53.1 °F 81% 30.23 in 10.0 mi SE 3.5 mph - N/A   Clear
2:53 PM 60.1 °F 53.1 °F 78% 30.23 in 10.0 mi Calm Calm - N/A   Clear
3:53 PM 59.0 °F 52.0 °F 78% 30.24 in 10.0 mi WNW 6.9 mph - N/A   Scattered Clouds
4:53 PM 57.9 °F 52.0 °F 81% 30.25 in 10.0 mi NNW 4.6 mph - N/A   Clear
5:53 PM 57.9 °F 53.1 °F 84% 30.25 in 10.0 mi NNW 5.8 mph - N/A   Clear
6:53 PM 57.9 °F 53.1 °F 84% 30.25 in 10.0 mi Calm Calm - N/A   Overcast
7:53 PM 57.9 °F 53.1 °F 84% 30.26 in 10.0 mi Calm Calm - N/A   Overcast
8:53 PM 55.9 °F 54.0 °F 93% 30.25 in 10.0 mi Calm Calm - N/A   Mostly Cloudy
9:53 PM 55.0 °F 53.1 °F 93% 30.25 in 10.0 mi Calm Calm - N/A   Scattered Clouds
10:53 PM 55.0 °F 53.1 °F 93% 30.24 in 8.0 mi ESE 4.6 mph - N/A   Overcast
11:12 PM 55.4 °F 53.6 °F 94% 30.21 in 8.0 mi Calm Calm - N/A   Overcast
11:53 PM 55.0 °F 53.1 °F 93% 30.24 in 8.0 mi SE 3.5 mph - N/A   Mostly Cloudy